{"data":{"norad_id":54801,"intl_designator":"2022-175AV","name":"STARLINK-5429","alt_names":[],"object_type":"PAYLOAD","status":"ACTIVE","operator":null,"country":"US","launch_date":"2022-12-17","launch_site_code":"AFETR","launch_vehicle":null,"mission":null,"orbit_class":"UNKNOWN","rcs_meters":null,"size_class":null,"mass_kg":null,"dimensions":null,"purposes":["comms"],"wikipedia_slug":null,"has_3d_model":false,"image_url":null,"decayed_at":null,"tle_current":{"epoch":"2026-05-25T04:28:34.216032Z","epoch_age_seconds":58210,"freshness":"FRESH","line1":"1 54801U 22175AV  26145.18650713 -.00005754  00000+0 -34358-3 0  9992","line2":"2 54801  53.2125  60.2715 0001364  96.5752 263.5395 15.08852525191473","mean_motion":15.08852525,"eccentricity":0.0001364,"inclination_deg":53.2125,"raan_deg":60.2715,"arg_perigee_deg":96.5752,"mean_anomaly_deg":263.5395,"bstar":-0.00034358,"rev_number":19147,"period_min":95.436762449664,"perigee_km":538.76151165147,"apogee_km":540.6486989778,"semimajor_km":6917.8421053146,"source":"CELESTRAK","updated_at":"2026-05-25T13:38:17.697029Z"}}}